Regional Weather Roundup
Issued by NWS Boston, MA

Home | Current Version | Previous Version | Text Only | Print | Product List | Glossary On
Versions: 1 2 3 4 5 6 7 8 9 10 11 12 13 14 15 16 17 18 19 20 21 22 23 24 25 26 27 28
000
ASUS41 KBOX 261410
RWRBOX

REGIONAL WEATHER ROUNDUP
NATIONAL WEATHER SERVICE TAUNTON MA
1000 AM EDT SUN MAR 26 2017

NOTE:  "FAIR" INDICATES FEW OR NO CLOUDS BELOW 12,000 FEET WITH NO
SIGNIFICANT WEATHER AND/OR OBSTRUCTIONS TO VISIBILITY.

MAZALL-261500-
EASTERN MASSACHUSETTS

CITY           SKY/WX    TMP DP  RH WIND       PRES   REMARKS
BOSTON         MOSUNNY   39  28  64 E15       30.55R WCI  31
BEVERLY        SUNNY     39  25  57 NE12      30.54R WCI  32
LAWRENCE       SUNNY     33  23  66 NE10      30.57R WCI  25
BEDFORD        PTSUNNY   34  24  67 NE8       30.54R WCI  27
BLUE HILL        N/A     39  24  55 E13G18    30.50R WCI  31
NORWOOD        SUNNY     41  26  55 E13       30.54R
MARSHFIELD     SUNNY     41  27  56 E10G22    30.53R
PLYMOUTH       SUNNY     41  26  55 E15G22    30.53R
TAUNTON        MOSUNNY   43  28  55 VRB7      30.51R
NEW BEDFORD    SUNNY     44  30  57 E14       30.51R
$$

MAZALL-261500-
CAPE COD AND THE ISLANDS

CITY           SKY/WX    TMP DP  RH WIND       PRES   REMARKS
FALMOUTH       PTSUNNY   41  30  65 MISG      30.51R
HYANNIS        SUNNY     43  28  55 NE14G20   30.49R
CHATHAM        SUNNY     42  27  55 E13G24    30.53R
PROVINCETOWN   SUNNY     41  26  55 E18       30.54R
NANTUCKET      MOSUNNY   44  33  65 NE20G30   30.49S
MARTHAS VNYRD  SUNNY     45  32  60 E17G23    30.50R
$$

MAZALL-261500-
CENTRAL AND WESTERN MASSACHUSETTS

CITY           SKY/WX    TMP DP  RH WIND       PRES   REMARKS
WORCESTER      MOSUNNY   32  20  61 E8        30.48S WCI  25
FITCHBURG      MOSUNNY  N/A N/A N/A NE7       30.54R
ORANGE         CLOUDY    34  23  64 E10       30.51S WCI  26
SPRINGFIELD    CLOUDY    34  25  70 NE7       30.50S WCI  28
WESTFIELD      CLOUDY    33  27  78 N5        30.51S WCI  29
NORTH ADAMS    CLOUDY    33  20  58 E15G23    30.47S WCI  23
PITTSFIELD     CLOUDY    32  21  64 E7        30.43S WCI  26
$$

RIZALL-261500-
RHODE ISLAND

CITY           SKY/WX    TMP DP  RH WIND       PRES   REMARKS
PROVIDENCE     PTSUNNY   40  27  59 NE13      30.52S
NEWPORT        CLOUDY    42  31  64 E9        30.50S
BLOCK ISLAND   CLOUDY    39  31  72 E12G21    30.49R WCI  32
SMITHFIELD     MOSUNNY   38  27  64 E10G16    30.51R WCI  31
WESTERLY       CLOUDY    40  28  62 NE7       30.50R
$$

CTZALL-261500-
CONNECTICUT

CITY           SKY/WX    TMP DP  RH WIND       PRES   REMARKS
BRADLEY INTL   PTSUNNY   34  27  75 N8        30.52R WCI  27
HARTFORD       CLOUDY    34  28  79 N6        30.51S WCI  29
BRIDGEPORT     CLOUDY    38  30  73 NE10      30.49R WCI  31
DANBURY        CLOUDY    35  28  75 E8        30.48R WCI  29
GROTON         CLOUDY    40  25  55 NE10G21   30.50R
NEW HAVEN      CLOUDY    37  30  75 NE8       30.49R WCI  31
CHESTER        NOT AVBL
MERIDEN        MIX PCPN  35  28  75 N3        30.50R
WILLIMANTIC    CLOUDY    37  27  67 E10       30.51R WCI  30
OXFORD         LGT RAIN  32  27  80 E9G17     30.47R WCI  24
$$

MEZ002-015-021-024-NHZ003-005-008-011-012-014-VTZ005-008-261500-
NORTHERN NEW ENGLAND

CITY           SKY/WX    TMP DP  RH WIND       PRES   REMARKS
PORTLAND ME    MOSUNNY   31  10  41 NE10      30.59R WCI  22
BANGOR ME      MOSUNNY   25   2  37 NE9       30.60S WCI  15
CONCORD NH     CLOUDY    33  13  43 E9G17     30.55R WCI  25
MANCHESTER NH  NOT AVBL
NASHUA NH      CLOUDY    34  32  92 NE5       30.56R WCI  30
PORTSMOUTH NH  PTSUNNY   35  18  50 NE7       30.55R WCI  29
JAFFREY NH     MOSUNNY   32  16  51 VRB3      30.50R
KEENE NH       NOT AVBL
BURLINGTON VT  CLOUDY    31  16  54 CALM      30.50F
MT. WASHINGTON MOSUNNY   23  -4  30 NW20        N/A  WCI   8
$$

NYZ052-076-261500-
EASTERN NEW YORK

CITY           SKY/WX    TMP DP  RH WIND       PRES   REMARKS
ALBANY         CLOUDY    31  21  66 NE5       30.49F WCI  26
NEW YORK CITY  CLOUDY    41  33  73 NE15      30.46R
$$

ANZALL-261500-
MARINE OBSERVATIONS

STATION/POSITION TIME  TEMP    WIND        PRES    VSBY  WAVE
                       AIR SEA DIR/SP/G                  HT/PER
                 (UTC) (F)     (DEG/KT/KT) (MB)    (MI)  (FT/S)
BOSTON BUOY      1250   39 40   60/ 16/ 19 1032.9          4/ 6
BUZZARDS BAY     1300   36      50/ 13/ 14 1033.1R
NANTUCKET SOUND  1350      39              1032.7R         2/ 3
MASS BAY-STELLWA 1304   38 39   60/ 14/ 16 1032.5F         5/ 5
ISLE OF SHOALS   1300   35      50/ 18/ 20 1033.9S
S OF BLOCK IS    1355      41                N/A           3/ 4
$$

......................KEY.........................
  SKY/WX - SKY CONDITION/PRESENT WEATHER
  TMP    - TEMPERATURE IN FAHRENHEIT
  DWPT   - DEWPOINT IN FAHRENHEIT
  RH     - RELATIVE HUMIDITY IN PERCENT
  WIND   - DIRECTION AND SPEED IN MPH
  PRES   - MEAN SEA LEVEL PRESSURE IN INCHES OF HG
  WCI    - WIND CHILL INDEX
  VSB    - VISIBILITY IN MILES
  HX     - HEAT INDEX
  TC     - TEMPERATURE IN CELSIUS
  VRB    - VARIABLE WIND DIRECTION
  N/A    - NOT AVAILABLE




USA.gov is the U.S. government's official web portal to all federal, state and local government web resources and services.